Preview of NWS' New Version of Forecast
This preview is not operational and should not be used for support decisions.

Regional Weather Roundup (RWR)

Issued by National Weather Service (NWS)

                            
000
ASUS44 KMEG 190010
RWRTN 
TENNESSEE HOURLY STATE WEATHER ROUNDUP
NATIONAL WEATHER SERVICE MEMPHIS TN
700 PM CDT SAT MAY 18 2019

TNZ002-004-019-021-049-052-054-088>092-190100-
WEST TENNESSEE
  
CITY           SKY/WX    TMP DP  RH WIND       PRES   REMARKS
MEMPHIS INTL   TSTM      72  67  84 E10       29.82R                  
NWS MEMPHIS      N/A     83 N/A N/A MISG        N/A                   
JACKSON        FAIR      81  63  54 S7        29.83F                  
DYERSBURG      PTSUNNY   83  61  47 S6        29.81S                  
SOMERVILLE     MOSUNNY   82  63  51 S8        29.82R                  
COVINGTON      CLOUDY    82  63  51 S9        29.80S                  
UNION CITY     SUNNY     82  61  47 S10       29.79S                  
BOLIVAR        CLEAR     81  64  57 SE7       29.83R                  
PARIS          CLEAR     81  61  50 S12       29.83F                  
HUNTINGDON     CLEAR     82  63  51 S8        29.82F                  
LEXINGTON      CLEAR     82  61  47 VRB6G15   29.84F                  
SELMER         CLEAR     82  63  51 S9G16     29.84F                  
SAVANNAH       CLEAR     82  63  51 S6G13     29.85F                  
$$

TNZ008-025-027-028-033-062-065-066-190100-
NORTH MIDDLE TENNESSEE
  
CITY           SKY/WX    TMP DP  RH WIND       PRES   REMARKS
NASHVILLE      FAIR      85  60  42 S13       29.89F                  
DICKSON        CLEAR     81  61  50 S12       29.88S                  
PORTLAND       CLEAR     82  64  54 S7        29.88S                  
CLARKSVILLE    FAIR      82  59  45 S14       29.85F                  
LEBANON        CLEAR     82  66  57 S7        29.88S                  
SMYRNA         FAIR      83  64  52 S7        29.90F                  
MURFREESBORO   CLEAR     84  64  51 S12       29.88F                  
COOKEVILLE     CLEAR     77  66  69 CALM      29.95S                  
LIVINGSTON     PTCLDY    73  66  78 CALM      29.97R                  
CROSSVILLE     FAIR      69  65  86 SW3       30.01S                  
ROCKWOOD       CLEAR     79  63  57 SW5       29.99S                  
$$

TNZ061-075-076-078-094-096-097-190100-
SOUTH MIDDLE TENNESSEE
  
CITY           SKY/WX    TMP DP  RH WIND       PRES   REMARKS
LAWRENCEBURG   CLEAR     81  64  57 S5        29.91S                  
LEWISBURG      CLEAR     82  64  54 S7        29.90S                  
FAYETTEVILLE   MOCLDY    81  63  54 S9        29.93S                  
TULLAHOMA      CLEAR     79  68  69 S5        29.93S                  
WINCHESTER     CLEAR     82  63  51 SW6       29.94S                  
MCMINNVILLE    CLEAR     81  64  57 CALM      29.94S                  
COLUMBIA       CLEAR     81  63  54 S8        29.87F                  
SHELBYVILLE    CLEAR     81  66  61 S6        29.91F                  
$$

TNZ017-018-042-046-047-190100-
NORTHEAST TENNESSEE
  
CITY           SKY/WX    TMP DP  RH WIND       PRES   REMARKS
TRI CITIES     TSTM      76  59  55 SE9       30.01R                  
ELIZABETHTON   FAIR      68  66  94 CALM      30.00R                  
GREENEVILLE    MOCLDY    70  63  78 S5        30.02R                  
$$

TNZ012-013-036-069-073-074-190100-
CENTRAL EAST TENNESSEE
  
CITY           SKY/WX    TMP DP  RH WIND       PRES   REMARKS
KNOXVILLE      MOCLDY    71  66  84 NE3       29.97R                  
OAK RIDGE      FAIR      79  62  56 CALM      29.98R                  
DOWNTOWN KNOXV   N/A     70  66  88 CALM      29.98R                  
GATLINBURG     CLEAR     68  66  94 CALM      29.98S                  
MORRISTOWN     MOCLDY    70  64  83 VRB7      30.01R                  
JACKSBORO      MOCLDY    79  63  57 S9        30.00R                  
$$

TNZ083-085-099-190100-
SOUTHEAST TENNESSEE
  
CITY           SKY/WX    TMP DP  RH WIND       PRES   REMARKS
CHATTANOOGA    MOCLDY    84  66  54 S7        29.95S                  
DAYTON         CLEAR     82  68  61 VRB3      29.94R                  
$$

SKY/WX REPORTED AS FAIR MEANS FEW OR NO CLOUDS BELOW
12 THOUSAND FEET.